| time (UTC) | temp F | wind direction | speed MPH | gust MPH | rain 1hr in | rain 24hr in | rain mn in | humidity % | barometer mb |
| 20260505232048 | 63 | 205 | 8.0 | 21.0 | 0.00 | 0.00 | 0.00 | 71 | 1016.2 |
| 20260505231147 | 63 | 209 | 9.0 | 21.0 | 0.00 | 0.00 | 0.00 | 70 | 1016.0 |
| 20260505230248 | 64 | 196 | 9.0 | 19.0 | 0.00 | 0.00 | 0.00 | 68 | 1016.0 |
| 20260505222647 | 65 | 205 | 9.0 | 18.0 | 0.00 | 0.00 | 0.00 | 67 | 1015.6 |
| 20260505221747 | 65 | 213 | 11.0 | 24.0 | 0.00 | 0.00 | 0.00 | 67 | 1015.7 |
| 20260505220847 | 66 | 207 | 13.0 | 27.0 | 0.00 | 0.00 | 0.00 | 66 | 1015.6 |
| 20260505215947 | 66 | 208 | 10.0 | 27.0 | 0.00 | 0.00 | 0.00 | 65 | 1015.5 |
| 20260505215047 | 66 | 205 | 10.0 | 22.0 | 0.00 | 0.00 | 0.00 | 64 | 1015.6 |
| 20260505214148 | 67 | 195 | 10.0 | 20.0 | 0.00 | 0.00 | 0.00 | 64 | 1015.4 |
| 20260505213247 | 66 | 204 | 11.0 | 23.0 | 0.00 | 0.00 | 0.00 | 65 | 1015.3 |
| 20260505212347 | 66 | 206 | 10.0 | 22.0 | 0.00 | 0.00 | 0.00 | 65 | 1015.3 |
| 20260505211447 | 66 | 196 | 11.0 | 21.0 | 0.00 | 0.00 | 0.00 | 65 | 1015.3 |
| 20260505205647 | 67 | 199 | 10.0 | 23.0 | 0.00 | 0.00 | 0.00 | 64 | 1015.2 |
| 20260505203847 | 67 | 186 | 10.0 | 17.0 | 0.00 | 0.00 | 0.00 | 66 | 1015.2 |
| 20260505202946 | 66 | 181 | 10.0 | 20.0 | 0.00 | 0.00 | 0.00 | 66 | 1015.3 |
| 20260505202047 | 66 | 192 | 8.0 | 19.0 | 0.00 | 0.00 | 0.00 | 66 | 1015.6 |
| 20260505200246 | 67 | 198 | 10.0 | 22.0 | 0.00 | 0.00 | 0.00 | 66 | 1015.6 |
| 20260505195347 | 67 | 189 | 9.0 | 20.0 | 0.00 | 0.00 | 0.00 | 65 | 1015.7 |
| 20260505194447 | 67 | 190 | 10.0 | 22.0 | 0.00 | 0.00 | 0.00 | 66 | 1015.6 |
| 20260505193546 | 67 | 202 | 8.0 | 18.0 | 0.00 | 0.00 | 0.00 | 66 | 1015.7 |
| 20260505192646 | 66 | 209 | 10.0 | 20.0 | 0.00 | 0.00 | 0.00 | 67 | 1016.0 |
| 20260505191746 | 66 | 193 | 11.0 | 23.0 | 0.00 | 0.00 | 0.00 | 66 | 1016.1 |
| 20260505190847 | 67 | 186 | 11.0 | 21.0 | 0.00 | 0.00 | 0.00 | 66 | 1016.3 |
| 20260505185947 | 67 | 174 | 12.0 | 20.0 | 0.00 | 0.00 | 0.00 | 66 | 1016.4 |
| 20260505185046 | 67 | 176 | 11.0 | 23.0 | 0.00 | 0.00 | 0.00 | 66 | 1016.5 |
| 20260505184146 | 67 | 181 | 11.0 | 23.0 | 0.00 | 0.00 | 0.00 | 66 | 1016.4 |
| 20260505183247 | 68 | 176 | 9.0 | 19.0 | 0.00 | 0.00 | 0.00 | 65 | 1016.5 |
| 20260505182346 | 67 | 181 | 10.0 | 17.0 | 0.00 | 0.00 | 0.00 | 66 | 1016.6 |
| 20260505181446 | 68 | 173 | 9.0 | 18.0 | 0.00 | 0.00 | 0.00 | 66 | 1016.6 |
| 20260505175646 | 68 | 185 | 9.0 | 19.0 | 0.00 | 0.00 | 0.00 | 66 | 1016.8 |
| 20260505174746 | 67 | 206 | 9.0 | 19.0 | 0.00 | 0.00 | 0.00 | 67 | 1016.8 |
| 20260505173846 | 67 | 200 | 10.0 | 21.0 | 0.00 | 0.00 | 0.00 | 68 | 1016.8 |
| 20260505172946 | 67 | 201 | 10.0 | 18.0 | 0.00 | 0.00 | 0.00 | 67 | 1016.9 |
| 20260505172046 | 67 | 205 | 10.0 | 18.0 | 0.00 | 0.00 | 0.00 | 66 | 1017.0 |
| 20260505170246 | 68 | 177 | 9.0 | 17.0 | 0.00 | 0.00 | 0.00 | 67 | 1016.8 |
| 20260505165346 | 68 | 181 | 8.0 | 17.0 | 0.00 | 0.00 | 0.00 | 66 | 1017.0 |
| 20260505164446 | 67 | 199 | 9.0 | 18.0 | 0.00 | 0.00 | 0.00 | 66 | 1017.2 |
| 20260505163545 | 68 | 182 | 9.0 | 15.0 | 0.00 | 0.00 | 0.00 | 65 | 1017.1 |
| 20260505162645 | 69 | 186 | 9.0 | 18.0 | 0.00 | 0.00 | 0.00 | 64 | 1017.2 |
| 20260505161745 | 70 | 221 | 7.0 | 16.0 | 0.00 | 0.00 | 0.00 | 63 | 1017.3 |
| 20260505160845 | 68 | 216 | 8.0 | 16.0 | 0.00 | 0.00 | 0.00 | 64 | 1017.4 |
| 20260505153245 | 68 | 193 | 6.0 | 12.0 | 0.00 | 0.00 | 0.00 | 67 | 1017.8 |
| 20260505150545 | 66 | 206 | 8.0 | 19.0 | 0.00 | 0.00 | 0.00 | 69 | 1018.1 |
| 20260505140245 | 65 | 205 | 6.0 | 14.0 | 0.00 | 0.00 | 0.00 | 70 | 1017.9 |
| 20260505124144 | 61 | 175 | 4.0 | 9.0 | 0.00 | 0.00 | 0.00 | 78 | 1017.8 |
| 20260505123244 | 61 | 199 | 3.0 | 8.0 | 0.00 | 0.00 | 0.00 | 79 | 1017.9 |
| 20260505122344 | 60 | 195 | 3.0 | 7.0 | 0.00 | 0.00 | 0.00 | 80 | 1017.8 |
| 20260505121445 | 60 | 184 | 3.0 | 8.0 | 0.00 | 0.00 | 0.00 | 81 | 1017.9 |
| 20260505120545 | 59 | 168 | 3.0 | 6.0 | 0.00 | 0.00 | 0.00 | 83 | 1017.8 |
| 20260505115644 | 58 | 208 | 3.0 | 7.0 | 0.00 | 0.00 | 0.00 | 83 | 1017.9 |
| 20260505113844 | 57 | 198 | 4.0 | 8.0 | 0.00 | 0.00 | 0.00 | 86 | 1018.1 |
| 20260505112944 | 56 | 202 | 3.0 | 6.0 | 0.00 | 0.00 | 0.00 | 87 | 1018.1 |
| 20260505112045 | 56 | 203 | 3.0 | 5.0 | 0.00 | 0.00 | 0.00 | 88 | 1018.2 |
| 20260505111144 | 55 | 199 | 3.0 | 7.0 | 0.00 | 0.00 | 0.00 | 88 | 1018.0 |
| 20260505110245 | 55 | 192 | 3.0 | 5.0 | 0.00 | 0.00 | 0.00 | 88 | 1018.0 |
| 20260505101744 | 53 | 170 | 3.0 | 8.0 | 0.00 | 0.00 | 0.00 | 90 | 1017.2 |
| 20260505100844 | 53 | 177 | 2.0 | 5.0 | 0.00 | 0.00 | 0.00 | 90 | 1017.0 |
| 20260505095044 | 53 | 163 | 3.0 | 6.0 | 0.00 | 0.00 | 0.00 | 90 | 1016.9 |
| 20260505094144 | 53 | 177 | 3.0 | 6.0 | 0.00 | 0.00 | 0.00 | 90 | 1016.9 |
| 20260505093244 | 53 | 168 | 3.0 | 8.0 | 0.00 | 0.00 | 0.00 | 89 | 1016.9 |
| 20260505092344 | 53 | 182 | 3.0 | 7.0 | 0.00 | 0.00 | 0.00 | 89 | 1017.0 |
| 20260505091443 | 54 | 179 | 4.0 | 10.0 | 0.00 | 0.00 | 0.00 | 89 | 1016.8 |
| 20260505090543 | 53 | 181 | 4.0 | 9.0 | 0.00 | 0.00 | 0.00 | 89 | 1016.9 |
| 20260505085645 | 54 | 176 | 4.0 | 12.0 | 0.00 | 0.00 | 0.00 | 89 | 1017.0 |
| 20260505084744 | 54 | 194 | 4.0 | 13.0 | 0.00 | 0.00 | 0.00 | 89 | 1017.0 |
| 20260505083844 | 54 | 178 | 5.0 | 11.0 | 0.00 | 0.00 | 0.00 | 89 | 1016.9 |
| 20260505082943 | 54 | 183 | 5.0 | 11.0 | 0.00 | 0.00 | 0.00 | 89 | 1016.9 |
| 20260505082043 | 54 | 189 | 5.0 | 13.0 | 0.00 | 0.00 | 0.00 | 88 | 1017.0 |
| 20260505080243 | 54 | 193 | 4.0 | 10.0 | 0.00 | 0.00 | 0.00 | 88 | 1016.9 |
| 20260505075343 | 54 | 192 | 5.0 | 14.0 | 0.00 | 0.00 | 0.00 | 87 | 1017.0 |
| 20260505074444 | 54 | 192 | 4.0 | 14.0 | 0.00 | 0.00 | 0.00 | 87 | 1017.0 |
| 20260505073544 | 54 | 189 | 5.0 | 12.0 | 0.00 | 0.00 | 0.00 | 87 | 1017.0 |
| 20260505072644 | 54 | 197 | 5.0 | 10.0 | 0.00 | 0.00 | 0.00 | 87 | 1017.0 |
| 20260505071743 | 54 | 193 | 3.0 | 10.0 | 0.00 | 0.00 | 0.00 | 87 | 1017.0 |
| 20260505070843 | 54 | 185 | 4.0 | 9.0 | 0.00 | 0.00 | 0.00 | 87 | 1017.0 |
| 20260505065944 | 54 | 187 | 4.0 | 11.0 | 0.00 | 0.00 | 0.00 | 87 | 1017.0 |
| 20260505065044 | 54 | 182 | 5.0 | 12.0 | 0.00 | 0.00 | 0.00 | 87 | 1017.1 |
| 20260505064144 | 54 | 183 | 5.0 | 11.0 | 0.00 | 0.00 | 0.00 | 86 | 1017.0 |
| 20260505063243 | 54 | 187 | 4.0 | 12.0 | 0.00 | 0.00 | 0.00 | 86 | 1017.0 |
| 20260505062344 | 54 | 187 | 5.0 | 12.0 | 0.00 | 0.00 | 0.00 | 86 | 1017.1 |
| 20260505061443 | 55 | 192 | 5.0 | 12.0 | 0.00 | 0.00 | 0.00 | 86 | 1017.2 |
| 20260505060543 | 55 | 190 | 5.0 | 12.0 | 0.00 | 0.00 | 0.00 | 86 | 1017.3 |
| 20260505055644 | 55 | 190 | 5.0 | 11.0 | 0.00 | 0.00 | 0.00 | 86 | 1017.3 |
| 20260505052943 | 55 | 182 | 4.0 | 12.0 | 0.00 | 0.00 | 0.00 | 85 | 1017.4 |
| 20260505052043 | 55 | 187 | 4.0 | 10.0 | 0.00 | 0.00 | 0.00 | 85 | 1017.4 |
| 20260505050244 | 55 | 186 | 4.0 | 10.0 | 0.00 | 0.00 | 0.00 | 83 | 1017.6 |
| 20260505041743 | 55 | 173 | 4.0 | 8.0 | 0.00 | 0.00 | 0.00 | 81 | 1017.9 |
| 20260505040844 | 56 | 175 | 3.0 | 7.0 | 0.00 | 0.00 | 0.00 | 80 | 1017.9 |
| 20260505035943 | 56 | 186 | 4.0 | 9.0 | 0.00 | 0.00 | 0.00 | 79 | 1017.8 |
| 20260505035043 | 56 | 196 | 4.0 | 10.0 | 0.00 | 0.00 | 0.00 | 78 | 1017.8 |
| 20260505034142 | 56 | 213 | 4.0 | 8.0 | 0.00 | 0.00 | 0.00 | 78 | 1017.8 |
| 20260505033242 | 56 | 205 | 3.0 | 14.0 | 0.00 | 0.00 | 0.00 | 78 | 1017.8 |
| 20260505032343 | 56 | 192 | 3.0 | 8.0 | 0.00 | 0.00 | 0.00 | 78 | 1017.8 |
| 20260505030542 | 56 | 210 | 4.0 | 9.0 | 0.00 | 0.00 | 0.00 | 78 | 1018.0 |
| 20260505025642 | 56 | 212 | 3.0 | 10.0 | 0.00 | 0.00 | 0.00 | 77 | 1017.9 |
| 20260505024743 | 56 | 206 | 4.0 | 8.0 | 0.00 | 0.00 | 0.00 | 77 | 1017.9 |
| 20260505023842 | 56 | 212 | 4.0 | 8.0 | 0.00 | 0.00 | 0.00 | 76 | 1017.9 |
| 20260505022942 | 56 | 217 | 5.0 | 11.0 | 0.00 | 0.00 | 0.00 | 76 | 1017.9 |
| 20260505022043 | 56 | 217 | 5.0 | 10.0 | 0.00 | 0.00 | 0.00 | 75 | 1018.0 |
| 20260505021142 | 56 | 223 | 4.0 | 10.0 | 0.00 | 0.00 | 0.00 | 75 | 1018.0 |
| 20260505020242 | 56 | 217 | 5.0 | 11.0 | 0.00 | 0.00 | 0.00 | 75 | 1018.0 |
| 20260505015342 | 56 | 216 | 5.0 | 12.0 | 0.00 | 0.00 | 0.00 | 75 | 1018.0 |
| 20260505014442 | 56 | 208 | 5.0 | 10.0 | 0.00 | 0.00 | 0.00 | 75 | 1018.0 |
| 20260505013543 | 56 | 218 | 5.0 | 11.0 | 0.00 | 0.00 | 0.00 | 74 | 1018.0 |
| 20260505011742 | 57 | 218 | 6.0 | 12.0 | 0.00 | 0.00 | 0.00 | 73 | 1017.8 |
| 20260505010843 | 57 | 215 | 6.0 | 13.0 | 0.00 | 0.00 | 0.00 | 72 | 1017.6 |
| 20260505005942 | 57 | 222 | 5.0 | 13.0 | 0.00 | 0.00 | 0.00 | 72 | 1017.6 |
| 20260505004142 | 56 | 212 | 7.0 | 16.0 | 0.00 | 0.00 | 0.00 | 72 | 1017.3 |
| 20260505003242 | 56 | 206 | 6.0 | 13.0 | 0.00 | 0.00 | 0.00 | 74 | 1017.2 |
| 20260505002342 | 56 | 202 | 5.0 | 11.0 | 0.00 | 0.00 | 0.00 | 75 | 1017.1 |
| 20260505001442 | 56 | 195 | 6.0 | 14.0 | 0.00 | 0.00 | 0.00 | 76 | 1017.0 |
| 20260504235641 | 56 | 184 | 5.0 | 16.0 | 0.00 | 0.00 | 0.00 | 75 | 1016.7 |
| 20260504234742 | 56 | 195 | 6.0 | 14.0 | 0.00 | 0.00 | 0.00 | 73 | 1016.7 |
| 20260504233842 | 57 | 200 | 8.0 | 15.0 | 0.00 | 0.00 | 0.00 | 71 | 1016.7 |
| 20260504232942 | 57 | 206 | 8.0 | 17.0 | 0.00 | 0.00 | 0.00 | 70 | 1016.6 |